Voltar ao catálogo

STARLINK-3291

AtivoComunicaçõesVLEO
NORAD 50175·PAYLOAD·🇺🇸 United States

Lançado Dec 18, 2021 de Vandenberg Space Force Base

Loading…

Próximas Passagens (próximas 24 horas)

TLE

AtualizadoSource: CelesTrak SupGP

Época: Sep 15, 2026, 02:08 UTC

1 50175C 21125V   26258.08937500  .00029493  00000+0  84387-3 0  2581
2 50175  53.1584 108.8183 0001243  80.8388  93.3516 15.35381746    11

Acompanhe STARLINK-3291 em tempo real com AllMySat

Download on the App Store